Simultaneous Nadir Overpasses (SNOs) Predictions

Prediction of SNOs between METOP-B and NOAA-19 Satellite Orbit:

Table of predicted SNOs for the next 14.0 days since TLE Epoch: 2/13/2025
Index Date (METOP-B) Time (METOP-B) Lat,Lon (METOP-B) SZA (METOP-B ) Date (NOAA-19) Time (NOAA-19) Lat,Lon (NOAA-19) SZA (NOAA-19 ) Distance(km) Time Diff (sec)
1 02/15/2025 01:35:32 -80.56, 49.48 80.77 02/15/2025 01:34:36 -80.56, 49.44 80.81 0.69 56
2 02/15/2025 02:26:12 80.54,-142.86 99.26 02/15/2025 02:25:29 80.54,-142.93 99.23 1.40 43
3 02/15/2025 03:16:53 -80.54, 24.42 80.76 02/15/2025 03:16:32 -80.55, 24.25 80.80 3.26 21
4 02/15/2025 04:07:33 80.51,-167.92 99.27 02/15/2025 04:07:24 80.51,-167.78 99.28 2.70 9
5 02/15/2025 04:58:13 -80.49, -0.32 80.71 02/15/2025 04:58:26 -80.49, -0.27 80.70 0.81 13
6 02/15/2025 05:48:54 80.49, 167.01 99.28 02/15/2025 05:49:20 80.49, 167.02 99.30 0.17 26
7 02/15/2025 06:39:34 -80.47, -25.38 80.70 02/15/2025 06:40:22 -80.48, -25.47 80.68 1.82 48
8 02/15/2025 07:30:15 80.47, 141.95 99.29 02/15/2025 07:31:16 80.47, 141.82 99.31 2.40 61
9 02/27/2025 08:23:30 80.63, 126.40 94.76 02/27/2025 08:22:20 80.63, 126.35 94.71 0.92 70
10 02/27/2025 09:14:11 -80.63, -66.28 85.26 02/27/2025 09:13:20 -80.62, -66.16 85.28 2.26 51
11 02/27/2025 10:04:51 80.61, 101.33 94.76 02/27/2025 10:04:15 80.60, 101.49 94.76 3.11 36
12 02/27/2025 10:55:32 -80.61, -91.35 85.26 02/27/2025 10:55:16 -80.61, -91.37 85.27 0.55 16
13 02/27/2025 11:46:12 80.59, 76.26 94.77 02/27/2025 11:46:11 80.59, 76.29 94.77 0.55 1



Historial Predications of SNOs between METOP-B and NOAA-19
